カタログに戻る

DMSP 5D-2 F13 DEB

運用中SSO
NORAD 40447·DEBRIS·🇺🇸 United States

打ち上げ Mar 24, 1995 から Vandenberg Space Force Base

Loading…

次のパス (今後24時間)

TLE

最新Source: Space-Track

元期: Sep 13, 2026, 00:23 UTC

1 40447U 95015AZ  26256.01604639  .00001443  00000-0  55615-3 0  9996
2 40447  98.6359 282.3268 0013463  74.7624 285.5047 14.31772238598831

AllMySatでDMSP 5D-2 F13 DEBをリアルタイム追跡

Download on the App Store